Location: Zagreb
(45.8000°N, 16.0000°E)
Time: 12:26:23
(UTC+01:00)

Vanguard 1 Rocket - Pass Details

Date: 06 October 2020
Orbit: 656 x 4221 km, 34.3° (Epoch: 28 October)

Event Time Altitude Azimuth Distance (km) Brightness Sun altitude
Rises 20:48:30 0° 269° (W) 5,404 12.5 -25.3°
Reaches altitude 10° 20:51:34 10° 264° (W) 4,782 11.9 -25.8°
Maximum altitude 21:05:35 48° 196° (SSW) 3,932 10.4 -28.1°
Enters shadow 21:16:58 31° 146° (SE) 5,437 10.8 -29.9°
Drops below altitude 10° 21:28:16 10° 132° (SE) 7,387 - -31.7°
Sets 21:34:36 0° 127° (SE) 8,454 - -32.6°
